This demonstration page uses our WeatherBlox Daily Observations layout. Learn more.

Left ArrowRight Arrow

41.55636, -103.73856

Hourly Observations for December 17, 2021

Temp ( °F °C ) Dew Point ( °F °C ) Humidity (%) Winds ( mph kmh ) Pressure ( in mb ) Visibility ( mi km ) Precip ( " mm )
12:58 am 00:58 Mostly Cloudy 29 -1.8 14 -9.9 54 54 SW 7 11 29.91 1013 10 16 0.00 0.00
1:58 am 01:58 Mostly Cloudy 29 -1.7 16 -9.1 57 57 W 8 13 30.03 1017 10 16 0.00 0.00
2:58 am 02:58 Partly Cloudy 23 -5.1 14 -9.9 69 69 WSW 8 13 30.10 1019 10 16 0.00 0.00
3:58 am 03:58 Mostly Cloudy 22 -5.5 14 -10.1 70 70 WSW 7 11 29.95 1014 10 16 0.00 0.00
4:58 am 04:58 Mostly Clear 23 -5.2 14 -9.8 70 70 W 9 15 29.96 1015 10 16 0.00 0.00
5:58 am 05:58 Clear 25 -3.7 14 -10.1 62 62 NW 5 7 29.98 1015 10 16 0.00 0.00
6:58 am 06:58 Clear 24 -4.5 12 -11.1 60 60 W 10 17 29.98 1015 10 16 0.00 0.00
7:58 am 07:58 Sunny 26 -3.4 13 -10.8 57 57 W 15 24 30.00 1016 10 16 0.00 0.00
8:58 am 08:58 Sunny 32 -0.1 12 -11 44 44 WNW 21 33 30.01 1016 10 16 0.00 0.00
9:58 am 09:58 Sunny 36 2.3 11 -11.7 35 35 WNW 22 35 30.00 1016 10 16 0.00 0.00
10:58 am 10:58 Sunny 38 3.5 11 -11.8 32 32 WNW 26 43 30.01 1016 10 16 0.00 0.00
11:58 am 11:58 Mostly Sunny 40 4.5 8 -13.3 26 26 WNW 28 44 29.99 1016 10 16 0.00 0.00
12:58 pm 12:58 Partly Cloudy 38 3.5 8 -13.4 28 28 NW 33 54 30.00 1016 10 16 0.00 0.00
1:58 pm 13:58 Mostly Sunny 36 2.4 9 -12.6 32 32 WNW 21 33 30.03 1017 10 16 0.00 0.00
2:58 pm 14:58 Mostly Cloudy 35 1.8 14 -10 42 42 NNW 20 31 30.09 1019 10 16 0.00 0.00
3:58 pm 15:58 Mostly Cloudy 28 -2 18 -7.6 66 66 N 21 33 30.17 1022 10 16 0.00 0.00
4:58 pm 16:58 Mostly Cloudy with Light Snow Showers 22 -5.4 15 -9.2 75 75 N 14 22 30.27 1025 10 16 0.00 0.00
5:58 pm 17:58 Mostly Cloudy with Light Snow Showers 18 -7.6 12 -10.9 77 77 NNW 18 30 30.34 1028 10 16 0.00 0.00
6:58 pm 18:58 Mostly Cloudy 17 -8.4 8 -13.5 67 67 N 18 30 30.37 1029 10 16 0.00 0.00
7:58 pm 19:58 Cloudy 17 -8.3 8 -13.2 68 68 NNW 16 26 30.40 1030 10 16 0.00 0.00
8:58 pm 20:58 Mostly Cloudy with Light Snow Showers 14 -10 9 -12.9 80 80 NW 9 15 30.40 1030 10 16 0.00 0.00
9:58 pm 21:58 Mostly Cloudy 13 -10.4 10 -12.3 86 86 WNW 8 13 30.40 1030 10 16 0.00 0.00
10:58 pm 22:58 Clear 9 -12.6 6 -14.6 85 85 W 8 13 30.42 1030 10 16 0.00 0.00
11:58 pm 23:58 Clear 8 -13.3 4 -15.8 82 82 W 12 19 30.41 1030 10 16 0.00 0.00

Powered by AerisWeather